Time,TemperatureF,DewpointF,PressureIn,WindDirection,WindDirectionDegrees,WindSpeedMPH,WindSpeedGustMPH,Humidity,HourlyPrecipIn,Conditions,Clouds,dailyrainin,SoftwareType,DateUTC
2013-03-24 00:01:00,48.9,41.7,29.98,East,82,0.0,2.0,76,0.00,,---,0.00,VWS V14.01,2013-03-24 07:01:00,
2013-03-24 00:06:00,48.8,41.2,29.98,East,82,0.0,3.0,75,0.00,,---,0.00,VWS V14.01,2013-03-24 07:06:00,
2013-03-24 00:11:00,48.7,41.1,29.97,East,82,0.0,3.0,75,0.00,,---,0.00,VWS V14.01,2013-03-24 07:11:00,
2013-03-24 00:16:00,48.6,40.3,29.97,ENE,57,2.0,3.0,73,0.00,,---,0.00,VWS V14.01,2013-03-24 07:16:00,
2013-03-24 00:21:00,48.5,38.8,29.97,NE,49,0.0,5.0,69,0.00,,---,0.00,VWS V14.01,2013-03-24 07:21:00,
2013-03-24 00:27:00,48.5,38.1,29.97,NE,48,0.0,5.0,67,0.00,,---,0.00,VWS V14.01,2013-03-24 07:27:00,
2013-03-24 00:32:00,48.5,38.8,29.97,NE,49,2.0,2.0,69,0.00,,---,0.00,VWS V14.01,2013-03-24 07:32:00,
2013-03-24 00:37:00,48.6,39.6,29.97,NE,48,0.0,2.0,71,0.00,,---,0.00,VWS V14.01,2013-03-24 07:37:00,
2013-03-24 00:42:00,48.7,40.1,29.97,NE,48,0.0,2.0,72,0.00,,---,0.00,VWS V14.01,2013-03-24 07:42:00,
2013-03-24 00:47:00,48.8,40.5,29.97,NE,48,2.0,3.0,73,0.00,,---,0.00,VWS V14.01,2013-03-24 07:47:00,
2013-03-24 00:52:00,48.8,40.2,29.97,NE,49,2.0,3.0,72,0.00,,---,0.00,VWS V14.01,2013-03-24 07:52:00,
2013-03-24 00:57:00,48.7,39.0,29.98,NE,48,0.0,3.0,69,0.00,,---,0.00,VWS V14.01,2013-03-24 07:57:00,
2013-03-24 01:02:00,48.6,38.5,29.98,NE,49,0.0,0.0,68,0.00,,---,0.00,VWS V14.01,2013-03-24 08:02:00,
2013-03-24 01:07:00,48.6,38.5,29.98,NE,48,0.0,0.0,68,0.00,,---,0.00,VWS V14.01,2013-03-24 08:07:00,
2013-03-24 01:12:00,48.6,38.5,29.98,NE,48,0.0,0.0,68,0.00,,---,0.00,VWS V14.01,2013-03-24 08:12:00,
2013-03-24 01:17:00,48.6,38.2,29.98,NE,49,0.0,0.0,67,0.00,,---,0.00,VWS V14.01,2013-03-24 08:17:00,
2013-03-24 01:22:00,48.5,37.7,29.98,NE,48,2.0,3.0,66,0.00,,---,0.00,VWS V14.01,2013-03-24 08:22:00,
2013-03-24 01:27:00,48.5,36.9,29.98,NE,49,2.0,3.0,64,0.00,,---,0.00,VWS V14.01,2013-03-24 08:27:00,
2013-03-24 01:32:00,48.4,36.4,29.97,NE,49,0.0,2.0,63,0.00,,---,0.00,VWS V14.01,2013-03-24 08:32:00,
2013-03-24 01:37:00,48.3,36.3,29.97,NE,49,1.0,3.0,63,0.00,,---,0.00,VWS V14.01,2013-03-24 08:37:00,
2013-03-24 01:42:00,48.2,36.2,29.97,NE,48,0.0,3.0,63,0.00,,---,0.00,VWS V14.01,2013-03-24 08:42:00,
2013-03-24 01:47:00,48.1,36.1,29.97,NE,49,0.0,3.0,63,0.00,,---,0.00,VWS V14.01,2013-03-24 08:47:00,
2013-03-24 01:52:00,48.2,36.2,29.97,NE,48,1.0,3.0,63,0.00,,---,0.00,VWS V14.01,2013-03-24 08:52:00,
2013-03-24 01:57:00,48.2,36.6,29.97,NE,49,0.0,3.0,64,0.00,,---,0.00,VWS V14.01,2013-03-24 08:57:00,
2013-03-24 02:02:00,48.2,36.2,29.97,NE,48,0.0,3.0,63,0.00,,---,0.00,VWS V14.01,2013-03-24 09:02:00,
2013-03-24 02:07:00,48.3,36.3,29.97,NE,49,1.0,4.0,63,0.00,,---,0.00,VWS V14.01,2013-03-24 09:07:00,
2013-03-24 02:12:00,48.3,36.3,29.97,NE,48,0.0,4.0,63,0.00,,---,0.00,VWS V14.01,2013-03-24 09:12:00,
2013-03-24 02:17:00,48.3,36.7,29.96,NE,48,2.0,3.0,64,0.00,,---,0.00,VWS V14.01,2013-03-24 09:17:00,
2013-03-24 02:22:00,48.3,37.9,29.96,NE,48,2.0,4.0,67,0.00,,---,0.00,VWS V14.01,2013-03-24 09:22:00,
2013-03-24 02:27:00,48.3,38.2,29.96,NE,48,0.0,4.0,68,0.00,,---,0.00,VWS V14.01,2013-03-24 09:27:00,
2013-03-24 02:32:00,48.2,38.2,29.96,NE,49,2.0,2.0,68,0.00,,---,0.00,VWS V14.01,2013-03-24 09:32:00,
2013-03-24 02:37:00,48.1,37.7,29.96,NE,48,0.0,2.0,67,0.00,,---,0.00,VWS V14.01,2013-03-24 09:37:00,
2013-03-24 02:42:00,48.0,36.8,29.96,NE,48,0.0,2.0,65,0.00,,---,0.00,VWS V14.01,2013-03-24 09:42:00,
2013-03-24 02:47:00,47.9,36.3,29.96,NE,49,0.0,0.0,64,0.00,,---,0.00,VWS V14.01,2013-03-24 09:47:00,
2013-03-24 02:52:00,47.8,36.2,29.96,NE,49,0.0,0.0,64,0.00,,---,0.00,VWS V14.01,2013-03-24 09:52:00,
2013-03-24 02:57:00,47.7,36.5,29.96,NE,48,0.0,0.0,65,0.00,,---,0.00,VWS V14.01,2013-03-24 09:57:00,
2013-03-24 03:02:00,47.7,37.3,29.96,NE,49,0.0,0.0,67,0.00,,---,0.00,VWS V14.01,2013-03-24 10:02:00,
2013-03-24 03:07:00,47.8,37.8,29.96,NE,48,0.0,0.0,68,0.00,,---,0.00,VWS V14.01,2013-03-24 10:07:00,
2013-03-24 03:12:00,47.8,38.5,29.96,NE,49,0.0,0.0,70,0.00,,---,0.00,VWS V14.01,2013-03-24 10:12:00,
2013-03-24 03:17:00,47.9,39.3,29.95,NE,48,0.0,0.0,72,0.00,,---,0.00,VWS V14.01,2013-03-24 10:17:00,
2013-03-24 03:22:00,48.1,40.9,29.96,NE,49,0.0,0.0,76,0.00,,---,0.00,VWS V14.01,2013-03-24 10:22:00,
2013-03-24 03:27:00,48.1,40.2,29.96,NE,49,0.0,0.0,74,0.00,,---,0.00,VWS V14.01,2013-03-24 10:27:00,
2013-03-24 03:32:00,47.9,39.7,29.95,NE,49,0.0,0.0,73,0.00,,---,0.00,VWS V14.01,2013-03-24 10:32:00,
2013-03-24 03:37:00,47.8,39.6,29.96,NE,49,0.0,0.0,73,0.00,,---,0.00,VWS V14.01,2013-03-24 10:37:00,
2013-03-24 03:42:00,47.6,38.7,29.95,NE,48,0.0,0.0,71,0.00,,---,0.00,VWS V14.01,2013-03-24 10:42:00,
2013-03-24 03:47:00,47.4,38.5,29.95,NE,48,0.0,0.0,71,0.00,,---,0.00,VWS V14.01,2013-03-24 10:47:00,
2013-03-24 03:52:00,47.2,38.3,29.95,NE,49,0.0,0.0,71,0.00,,---,0.00,VWS V14.01,2013-03-24 10:52:00,
2013-03-24 03:57:00,47.0,38.5,29.95,NE,49,0.0,0.0,72,0.00,,---,0.00,VWS V14.01,2013-03-24 10:57:00,
2013-03-24 04:02:00,46.9,39.1,29.95,NE,48,0.0,0.0,74,0.00,,---,0.00,VWS V14.01,2013-03-24 11:02:00,
2013-03-24 04:07:00,46.9,39.1,29.95,NE,48,0.0,0.0,74,0.00,,---,0.00,VWS V14.01,2013-03-24 11:07:00,
2013-03-24 04:12:00,46.8,38.6,29.95,NE,48,0.0,0.0,73,0.00,,---,0.00,VWS V14.01,2013-03-24 11:12:00,
2013-03-24 04:17:00,46.7,38.5,29.95,NE,48,0.0,0.0,73,0.00,,---,0.00,VWS V14.01,2013-03-24 11:17:00,
2013-03-24 04:22:00,46.7,38.5,29.95,NE,48,0.0,0.0,73,0.00,,---,0.00,VWS V14.01,2013-03-24 11:22:00,
2013-03-24 04:27:00,46.6,38.8,29.95,NE,49,0.0,0.0,74,0.00,,---,0.00,VWS V14.01,2013-03-24 11:27:00,
2013-03-24 04:32:00,46.5,38.3,29.95,NE,48,0.0,0.0,73,0.00,,---,0.00,VWS V14.01,2013-03-24 11:32:00,
2013-03-24 04:37:00,46.5,38.7,29.95,NE,48,0.0,0.0,74,0.00,,---,0.00,VWS V14.01,2013-03-24 11:37:00,
2013-03-24 04:42:00,46.5,39.0,29.95,NE,48,0.0,0.0,75,0.00,,---,0.00,VWS V14.01,2013-03-24 11:42:00,
2013-03-24 04:48:00,46.6,39.5,29.95,NE,49,0.0,0.0,76,0.00,,---,0.00,VWS V14.01,2013-03-24 11:48:00,
2013-03-24 04:53:00,46.7,39.9,29.95,NE,48,0.0,0.0,77,0.00,,---,0.00,VWS V14.01,2013-03-24 11:53:00,
2013-03-24 04:58:00,46.6,39.5,29.96,NE,48,0.0,0.0,76,0.00,,---,0.00,VWS V14.01,2013-03-24 11:58:00,
2013-03-24 05:03:00,46.5,40.0,29.96,NE,49,0.0,0.0,78,0.00,,---,0.00,VWS V14.01,2013-03-24 12:03:00,
2013-03-24 05:08:00,46.5,40.3,29.96,NE,48,0.0,0.0,79,0.00,,---,0.00,VWS V14.01,2013-03-24 12:08:00,
2013-03-24 05:13:00,46.4,40.2,29.96,NE,49,0.0,0.0,79,0.00,,---,0.00,VWS V14.01,2013-03-24 12:13:00,
2013-03-24 05:18:00,46.1,39.3,29.97,NE,49,0.0,0.0,77,0.00,,---,0.00,VWS V14.01,2013-03-24 12:18:00,
2013-03-24 05:23:00,45.8,39.0,29.97,NE,48,0.0,0.0,77,0.00,,---,0.00,VWS V14.01,2013-03-24 12:23:00,
2013-03-24 05:28:00,45.6,38.8,29.97,NE,49,0.0,0.0,77,0.00,,---,0.00,VWS V14.01,2013-03-24 12:28:00,
2013-03-24 05:33:00,45.6,39.2,29.97,NE,49,0.0,0.0,78,0.00,,---,0.00,VWS V14.01,2013-03-24 12:33:00,
2013-03-24 05:38:00,45.7,39.9,29.97,NE,48,0.0,0.0,80,0.00,,---,0.00,VWS V14.01,2013-03-24 12:38:00,
2013-03-24 05:43:00,45.9,40.7,29.97,NE,48,0.0,0.0,82,0.00,,---,0.00,VWS V14.01,2013-03-24 12:43:00,
2013-03-24 05:48:00,46.0,40.8,29.97,NE,48,0.0,0.0,82,0.00,,---,0.00,VWS V14.01,2013-03-24 12:48:00,
2013-03-24 05:53:00,46.0,41.1,29.97,NE,48,0.0,0.0,83,0.00,,---,0.00,VWS V14.01,2013-03-24 12:53:00,
2013-03-24 05:58:00,46.0,40.8,29.97,NE,49,0.0,0.0,82,0.00,,---,0.00,VWS V14.01,2013-03-24 12:58:00,
2013-03-24 06:03:00,45.7,40.5,29.98,NE,49,0.0,0.0,82,0.00,,---,0.00,VWS V14.01,2013-03-24 13:03:00,
2013-03-24 06:08:00,45.5,40.3,29.98,NE,49,0.0,0.0,82,0.00,,---,0.00,VWS V14.01,2013-03-24 13:08:00,
2013-03-24 06:13:00,45.2,39.7,29.98,NE,48,0.0,0.0,81,0.00,,---,0.00,VWS V14.01,2013-03-24 13:13:00,
2013-03-24 06:18:00,45.0,39.2,29.98,NE,49,0.0,0.0,80,0.00,,---,0.00,VWS V14.01,2013-03-24 13:18:00,
2013-03-24 06:23:00,44.5,38.7,29.98,NE,48,0.0,0.0,80,0.00,,---,0.00,VWS V14.01,2013-03-24 13:23:00,
2013-03-24 06:28:00,44.6,39.8,29.98,NE,49,0.0,0.0,83,0.00,,---,0.00,VWS V14.01,2013-03-24 13:28:00,
2013-03-24 06:33:00,44.7,40.2,29.98,NE,49,0.0,0.0,84,0.00,,---,0.00,VWS V14.01,2013-03-24 13:33:00,
2013-03-24 06:38:00,44.9,40.4,29.98,NE,48,0.0,0.0,84,0.00,,---,0.00,VWS V14.01,2013-03-24 13:38:00,
2013-03-24 06:43:00,44.8,40.6,29.98,NE,49,0.0,0.0,85,0.00,,---,0.00,VWS V14.01,2013-03-24 13:43:00,
2013-03-24 06:48:00,44.7,40.5,29.98,NE,48,0.0,0.0,85,0.00,,---,0.00,VWS V14.01,2013-03-24 13:48:00,
2013-03-24 06:53:00,44.7,40.5,29.98,NE,48,0.0,0.0,85,0.00,,---,0.00,VWS V14.01,2013-03-24 13:53:00,
2013-03-24 06:58:00,44.5,40.3,29.98,NE,48,0.0,0.0,85,0.00,,---,0.00,VWS V14.01,2013-03-24 13:58:00,
2013-03-24 07:03:00,44.2,39.7,29.99,NE,48,0.0,0.0,84,0.00,,---,0.00,VWS V14.01,2013-03-24 14:03:00,
2013-03-24 07:08:00,44.0,39.5,29.99,NE,49,0.0,0.0,84,0.00,,---,0.00,VWS V14.01,2013-03-24 14:08:00,
2013-03-24 07:13:00,43.7,39.2,29.99,NE,49,0.0,0.0,84,0.00,,---,0.00,VWS V14.01,2013-03-24 14:13:00,
2013-03-24 07:18:00,43.6,39.1,29.99,NE,48,0.0,0.0,84,0.00,,---,0.00,VWS V14.01,2013-03-24 14:18:00,
2013-03-24 07:23:00,43.5,39.0,29.99,NE,49,0.0,0.0,84,0.00,,---,0.00,VWS V14.01,2013-03-24 14:23:00,
2013-03-24 07:28:00,43.5,39.0,29.99,NE,49,0.0,0.0,84,0.00,,---,0.00,VWS V14.01,2013-03-24 14:28:00,
2013-03-24 07:33:00,43.6,39.1,29.99,NE,48,0.0,0.0,84,0.00,,---,0.00,VWS V14.01,2013-03-24 14:33:00,
2013-03-24 07:38:00,43.7,39.2,29.99,NE,49,0.0,0.0,84,0.00,,---,0.00,VWS V14.01,2013-03-24 14:38:00,
2013-03-24 07:43:00,43.9,39.4,29.99,NE,49,0.0,0.0,84,0.00,,---,0.00,VWS V14.01,2013-03-24 14:43:00,
2013-03-24 07:48:00,44.2,39.7,29.99,NE,48,0.0,0.0,84,0.00,,---,0.00,VWS V14.01,2013-03-24 14:48:00,
2013-03-24 07:53:00,44.6,40.1,29.99,NE,48,0.0,0.0,84,0.00,,---,0.00,VWS V14.01,2013-03-24 14:53:00,
2013-03-24 07:58:00,45.0,40.8,29.99,NE,49,0.0,0.0,85,0.00,,---,0.00,VWS V14.01,2013-03-24 14:58:00,
2013-03-24 08:03:00,45.5,41.3,29.99,NE,49,0.0,0.0,85,0.00,,---,0.00,VWS V14.01,2013-03-24 15:03:00,
2013-03-24 08:08:00,46.0,41.8,29.99,NE,48,0.0,0.0,85,0.00,,---,0.00,VWS V14.01,2013-03-24 15:08:00,
2013-03-24 08:13:00,46.4,42.1,29.99,NE,48,0.0,0.0,85,0.00,,---,0.00,VWS V14.01,2013-03-24 15:13:00,
2013-03-24 08:18:00,46.8,42.2,29.99,NE,49,0.0,0.0,84,0.00,,---,0.00,VWS V14.01,2013-03-24 15:18:00,
2013-03-24 08:23:00,47.3,42.4,29.99,NE,48,0.0,0.0,83,0.00,,---,0.00,VWS V14.01,2013-03-24 15:23:00,
2013-03-24 08:28:00,47.9,42.4,29.99,NE,49,0.0,0.0,81,0.00,,---,0.00,VWS V14.01,2013-03-24 15:28:00,
2013-03-24 08:33:00,48.7,42.8,29.99,NE,48,0.0,0.0,80,0.00,,---,0.00,VWS V14.01,2013-03-24 15:33:00,
2013-03-24 08:38:00,49.5,42.9,29.99,NE,49,0.0,0.0,78,0.00,,---,0.00,VWS V14.01,2013-03-24 15:38:00,
2013-03-24 08:43:00,50.1,43.5,29.99,NE,48,0.0,0.0,78,0.00,,---,0.00,VWS V14.01,2013-03-24 15:43:00,
2013-03-24 08:48:00,50.7,43.8,29.99,NE,48,0.0,0.0,77,0.00,,---,0.00,VWS V14.01,2013-03-24 15:48:00,
2013-03-24 08:53:00,51.4,44.8,29.99,NE,49,0.0,0.0,78,0.00,,---,0.00,VWS V14.01,2013-03-24 15:53:00,
2013-03-24 08:58:00,52.1,45.5,29.99,NE,49,0.0,0.0,78,0.00,,---,0.00,VWS V14.01,2013-03-24 15:58:00,
2013-03-24 09:03:00,52.8,46.1,29.99,NE,48,0.0,0.0,78,0.00,,---,0.00,VWS V14.01,2013-03-24 16:03:00,
2013-03-24 09:08:00,53.5,46.1,29.99,NE,48,0.0,0.0,76,0.00,,---,0.00,VWS V14.01,2013-03-24 16:08:00,
2013-03-24 09:13:00,54.2,46.1,29.99,NE,48,0.0,0.0,74,0.00,,---,0.00,VWS V14.01,2013-03-24 16:13:00,
2013-03-24 09:18:00,55.1,46.6,29.99,NE,49,0.0,0.0,73,0.00,,---,0.00,VWS V14.01,2013-03-24 16:18:00,
2013-03-24 09:23:00,56.4,47.1,29.99,NE,48,0.0,0.0,71,0.00,,---,0.00,VWS V14.01,2013-03-24 16:23:00,
2013-03-24 09:28:00,57.7,48.0,29.99,NE,48,0.0,0.0,70,0.00,,---,0.00,VWS V14.01,2013-03-24 16:28:00,
2013-03-24 09:34:00,59.0,48.1,29.99,NE,48,0.0,0.0,67,0.00,,---,0.00,VWS V14.01,2013-03-24 16:34:00,
2013-03-24 09:39:00,60.2,48.4,29.99,NE,49,0.0,0.0,65,0.00,,---,0.00,VWS V14.01,2013-03-24 16:39:00,
2013-03-24 09:44:00,61.4,49.1,29.98,NE,48,0.0,0.0,64,0.00,,---,0.00,VWS V14.01,2013-03-24 16:44:00,
2013-03-24 09:49:00,62.7,49.9,29.98,NE,49,0.0,1.0,63,0.00,,---,0.00,VWS V14.01,2013-03-24 16:49:00,
2013-03-24 09:54:00,63.7,51.3,29.98,SW,226,5.0,5.0,64,0.00,,---,0.00,VWS V14.01,2013-03-24 16:54:00,
2013-03-24 09:59:00,63.8,50.5,29.98,WSW,244,0.0,5.0,62,0.00,,---,0.00,VWS V14.01,2013-03-24 16:59:00,
2013-03-24 10:04:00,63.7,50.5,29.98,SW,223,3.0,5.0,62,0.00,,---,0.00,VWS V14.01,2013-03-24 17:04:00,
2013-03-24 10:09:00,63.4,50.6,29.98,SW,234,2.0,6.0,63,0.00,,---,0.00,VWS V14.01,2013-03-24 17:09:00,
2013-03-24 10:14:00,63.2,50.4,29.98,WSW,253,2.0,6.0,63,0.00,,---,0.00,VWS V14.01,2013-03-24 17:14:00,
2013-03-24 10:19:00,63.2,50.0,29.98,WSW,249,0.0,3.0,62,0.00,,---,0.00,VWS V14.01,2013-03-24 17:19:00,
2013-03-24 10:24:00,63.5,50.7,29.98,WSW,248,4.0,4.0,63,0.00,,---,0.00,VWS V14.01,2013-03-24 17:24:00,
2013-03-24 10:29:00,63.8,51.0,29.98,WSW,248,0.0,4.0,63,0.00,,---,0.00,VWS V14.01,2013-03-24 17:29:00,
2013-03-24 10:34:00,64.3,51.9,29.98,SW,233,0.0,4.0,64,0.00,,---,0.00,VWS V14.01,2013-03-24 17:34:00,
2013-03-24 10:39:00,64.8,51.5,29.98,SW,220,3.0,4.0,62,0.00,,---,0.00,VWS V14.01,2013-03-24 17:39:00,
2013-03-24 10:44:00,65.4,52.1,29.98,SW,219,2.0,4.0,62,0.00,,---,0.00,VWS V14.01,2013-03-24 17:44:00,
2013-03-24 10:49:00,65.6,52.7,29.98,SW,218,4.0,5.0,63,0.00,,---,0.00,VWS V14.01,2013-03-24 17:49:00,
2013-03-24 10:54:00,65.7,51.9,29.97,SW,217,3.0,5.0,61,0.00,,---,0.00,VWS V14.01,2013-03-24 17:54:00,
2013-03-24 10:59:00,65.8,51.5,29.97,SW,217,2.0,5.0,60,0.00,,---,0.00,VWS V14.01,2013-03-24 17:59:00,
2013-03-24 11:04:00,66.1,51.8,29.97,SW,217,2.0,5.0,60,0.00,,---,0.00,VWS V14.01,2013-03-24 18:04:00,
2013-03-24 11:09:00,66.5,51.3,29.97,SW,226,2.0,5.0,58,0.00,,---,0.00,VWS V14.01,2013-03-24 18:09:00,
2013-03-24 11:14:00,66.6,51.8,29.97,SW,227,2.0,5.0,59,0.00,,---,0.00,VWS V14.01,2013-03-24 18:14:00,
2013-03-24 11:19:00,67.0,51.3,29.97,West,261,0.0,4.0,57,0.00,,---,0.00,VWS V14.01,2013-03-24 18:19:00,
2013-03-24 11:24:00,67.4,51.7,29.97,SSW,207,3.0,5.0,57,0.00,,---,0.00,VWS V14.01,2013-03-24 18:24:00,
2013-03-24 11:29:00,67.8,52.5,29.97,SW,229,0.0,6.0,58,0.00,,---,0.00,VWS V14.01,2013-03-24 18:29:00,
2013-03-24 11:34:00,68.1,50.8,29.97,SW,229,1.0,5.0,54,0.00,,---,0.00,VWS V14.01,2013-03-24 18:34:00,
2013-03-24 11:39:00,68.5,53.6,29.96,WSW,238,4.0,5.0,59,0.00,,---,0.00,VWS V14.01,2013-03-24 18:39:00,
2013-03-24 11:44:00,68.9,52.6,29.96,WSW,253,0.0,5.0,56,0.00,,---,0.00,VWS V14.01,2013-03-24 18:44:00,
2013-03-24 11:49:00,69.2,52.8,29.96,WSW,253,0.0,5.0,56,0.00,,---,0.00,VWS V14.01,2013-03-24 18:49:00,
2013-03-24 11:54:00,69.4,52.5,29.96,SW,227,0.0,5.0,55,0.00,,---,0.00,VWS V14.01,2013-03-24 18:54:00,
2013-03-24 11:59:00,69.9,52.5,29.96,SW,224,3.0,5.0,54,0.00,,---,0.00,VWS V14.01,2013-03-24 18:59:00,
2013-03-24 12:04:00,70.1,52.7,29.95,WSW,248,1.0,4.0,54,0.00,,---,0.00,VWS V14.01,2013-03-24 19:04:00,
2013-03-24 12:09:00,70.4,50.9,29.96,WSW,254,0.0,6.0,50,0.00,,---,0.00,VWS V14.01,2013-03-24 19:09:00,
2013-03-24 12:14:00,70.9,50.2,29.95,WSW,254,0.0,6.0,48,0.00,,---,0.00,VWS V14.01,2013-03-24 19:14:00,
2013-03-24 12:19:00,71.4,50.1,29.95,West,264,2.0,5.0,47,0.00,,---,0.00,VWS V14.01,2013-03-24 19:19:00,
2013-03-24 12:24:00,71.3,52.3,29.95,West,265,4.0,6.0,51,0.00,,---,0.00,VWS V14.01,2013-03-24 19:24:00,
2013-03-24 12:29:00,71.0,50.3,29.95,WSW,248,2.0,6.0,48,0.00,,---,0.00,VWS V14.01,2013-03-24 19:29:00,
2013-03-24 12:34:00,71.5,51.9,29.95,WSW,237,3.0,7.0,50,0.00,,---,0.00,VWS V14.01,2013-03-24 19:34:00,
2013-03-24 12:39:00,71.7,51.5,29.95,West,262,2.0,7.0,49,0.00,,---,0.00,VWS V14.01,2013-03-24 19:39:00,
2013-03-24 12:44:00,71.3,51.2,29.95,WNW,287,1.0,7.0,49,0.00,,---,0.00,VWS V14.01,2013-03-24 19:44:00,
2013-03-24 12:49:00,72.1,51.9,29.95,SW,217,4.0,5.0,49,0.00,,---,0.00,VWS V14.01,2013-03-24 19:49:00,
2013-03-24 12:54:00,73.1,52.8,29.94,WSW,249,3.0,5.0,49,0.00,,---,0.00,VWS V14.01,2013-03-24 19:54:00,
2013-03-24 12:59:00,73.5,50.3,29.94,WNW,294,2.0,6.0,44,0.00,,---,0.00,VWS V14.01,2013-03-24 19:59:00,
2013-03-24 13:04:00,73.0,52.7,29.94,West,264,2.0,6.0,49,0.00,,---,0.00,VWS V14.01,2013-03-24 20:04:00,
2013-03-24 13:09:00,73.3,51.9,29.94,West,263,3.0,7.0,47,0.00,,---,0.00,VWS V14.01,2013-03-24 20:09:00,
2013-03-24 13:14:00,73.9,53.0,29.93,WSW,248,0.0,7.0,48,0.00,,---,0.00,VWS V14.01,2013-03-24 20:14:00,
2013-03-24 13:19:00,74.9,52.8,29.93,WSW,242,4.0,5.0,46,0.00,,---,0.00,VWS V14.01,2013-03-24 20:19:00,
2013-03-24 13:24:00,75.4,50.7,29.92,SW,221,2.0,6.0,42,0.00,,---,0.00,VWS V14.01,2013-03-24 20:24:00,
2013-03-24 13:29:00,75.5,52.1,29.92,West,263,2.0,6.0,44,0.00,,---,0.00,VWS V14.01,2013-03-24 20:29:00,
2013-03-24 13:34:00,75.5,52.1,29.92,WSW,248,4.0,7.0,44,0.00,,---,0.00,VWS V14.01,2013-03-24 20:34:00,
2013-03-24 13:39:00,75.5,50.8,29.91,WSW,242,0.0,8.0,42,0.00,,---,0.00,VWS V14.01,2013-03-24 20:39:00,
2013-03-24 13:44:00,75.3,53.1,29.91,WSW,240,4.0,9.0,46,0.00,,---,0.00,VWS V14.01,2013-03-24 20:44:00,
2013-03-24 13:49:00,75.2,51.8,29.91,West,259,3.0,8.0,44,0.00,,---,0.00,VWS V14.01,2013-03-24 20:49:00,
2013-03-24 13:54:00,74.4,49.2,29.92,ENE,68,1.0,8.0,41,0.00,,---,0.00,VWS V14.01,2013-03-24 20:54:00,
2013-03-24 13:59:00,74.5,51.8,29.91,West,280,1.0,8.0,45,0.00,,---,0.00,VWS V14.01,2013-03-24 20:59:00,
2013-03-24 14:04:00,74.0,49.5,29.91,West,277,1.0,5.0,42,0.00,,---,0.00,VWS V14.01,2013-03-24 21:04:00,
2013-03-24 14:09:00,73.8,50.5,29.91,WSW,246,0.0,5.0,44,0.00,,---,0.00,VWS V14.01,2013-03-24 21:09:00,
2013-03-24 14:14:00,74.5,50.6,29.91,WSW,244,0.0,6.0,43,0.00,,---,0.00,VWS V14.01,2013-03-24 21:14:00,
2013-03-24 14:19:00,75.2,53.0,29.90,WSW,241,1.0,6.0,46,0.00,,---,0.00,VWS V14.01,2013-03-24 21:19:00,
2013-03-24 14:24:00,75.4,50.1,29.90,North,5,0.0,6.0,41,0.00,,---,0.00,VWS V14.01,2013-03-24 21:24:00,
2013-03-24 14:29:00,75.4,52.6,29.90,West,267,2.0,10.0,45,0.00,,---,0.00,VWS V14.01,2013-03-24 21:29:00,
2013-03-24 14:34:00,75.0,52.2,29.90,WNW,300,1.0,4.0,45,0.00,,---,0.00,VWS V14.01,2013-03-24 21:34:00,
2013-03-24 14:39:00,75.1,50.5,29.90,WNW,284,0.0,6.0,42,0.00,,---,0.00,VWS V14.01,2013-03-24 21:39:00,
2013-03-24 14:44:00,75.2,51.2,29.90,WSW,256,2.0,6.0,43,0.00,,---,0.00,VWS V14.01,2013-03-24 21:44:00,
2013-03-24 14:49:00,75.4,53.2,29.89,SW,227,4.0,5.0,46,0.00,,---,0.00,VWS V14.01,2013-03-24 21:49:00,
2013-03-24 14:54:00,75.8,53.0,29.89,SW,232,5.0,9.0,45,0.00,,---,0.00,VWS V14.01,2013-03-24 21:54:00,
2013-03-24 14:59:00,76.0,53.8,29.88,WSW,254,5.0,9.0,46,0.00,,---,0.00,VWS V14.01,2013-03-24 21:59:00,
2013-03-24 15:04:00,75.7,51.6,29.89,West,281,4.0,6.0,43,0.00,,---,0.00,VWS V14.01,2013-03-24 22:04:00,
2013-03-24 15:09:00,75.5,53.9,29.89,West,262,4.0,6.0,47,0.00,,---,0.00,VWS V14.01,2013-03-24 22:09:00,
2013-03-24 15:14:00,75.3,53.1,29.89,WNW,286,1.0,7.0,46,0.00,,---,0.00,VWS V14.01,2013-03-24 22:14:00,
2013-03-24 15:19:00,75.4,53.2,29.88,West,259,5.0,12.0,46,0.00,,---,0.00,VWS V14.01,2013-03-24 22:19:00,
2013-03-24 15:24:00,75.2,53.6,29.89,WSW,254,5.0,12.0,47,0.00,,---,0.00,VWS V14.01,2013-03-24 22:24:00,
2013-03-24 15:29:00,74.8,53.2,29.89,NW,304,7.0,12.0,47,0.00,,---,0.00,VWS V14.01,2013-03-24 22:29:00,
2013-03-24 15:34:00,74.5,53.5,29.89,WNW,283,1.0,6.0,48,0.00,,---,0.00,VWS V14.01,2013-03-24 22:34:00,
2013-03-24 15:39:00,74.3,53.4,29.89,WSW,246,4.0,12.0,48,0.00,,---,0.00,VWS V14.01,2013-03-24 22:39:00,
2013-03-24 15:44:00,74.2,52.7,29.89,WSW,254,4.0,12.0,47,0.00,,---,0.00,VWS V14.01,2013-03-24 22:44:00,
2013-03-24 15:49:00,73.9,52.4,29.89,West,267,3.0,9.0,47,0.00,,---,0.00,VWS V14.01,2013-03-24 22:49:00,
2013-03-24 15:54:00,73.6,53.3,29.88,WSW,257,4.0,10.0,49,0.00,,---,0.00,VWS V14.01,2013-03-24 22:54:00,
2013-03-24 15:59:00,73.3,53.0,29.89,WSW,240,6.0,12.0,49,0.00,,---,0.00,VWS V14.01,2013-03-24 22:59:00,
2013-03-24 16:04:00,72.8,51.4,29.89,West,281,1.0,9.0,47,0.00,,---,0.00,VWS V14.01,2013-03-24 23:04:00,
2013-03-24 16:09:00,72.6,53.5,29.88,West,260,3.0,9.0,51,0.00,,---,0.00,VWS V14.01,2013-03-24 23:09:00,
2013-03-24 16:14:00,72.8,52.0,29.89,WSW,251,2.0,9.0,48,0.00,,---,0.00,VWS V14.01,2013-03-24 23:14:00,
2013-03-24 16:19:00,72.8,52.0,29.88,WNW,284,4.0,7.0,48,0.00,,---,0.00,VWS V14.01,2013-03-24 23:19:00,
2013-03-24 16:24:00,73.0,52.2,29.88,WSW,257,3.0,7.0,48,0.00,,---,0.00,VWS V14.01,2013-03-24 23:24:00,
2013-03-24 16:29:00,73.0,52.7,29.88,West,261,1.0,7.0,49,0.00,,---,0.00,VWS V14.01,2013-03-24 23:29:00,
2013-03-24 16:34:00,73.0,53.3,29.88,WSW,245,0.0,5.0,50,0.00,,---,0.00,VWS V14.01,2013-03-24 23:34:00,
2013-03-24 16:39:00,72.9,52.6,29.88,WSW,252,0.0,6.0,49,0.00,,---,0.00,VWS V14.01,2013-03-24 23:39:00,
2013-03-24 16:44:00,72.8,53.1,29.88,WNW,300,0.0,6.0,50,0.00,,---,0.00,VWS V14.01,2013-03-24 23:44:00,
2013-03-24 16:49:00,72.6,51.2,29.88,NW,325,4.0,6.0,47,0.00,,---,0.00,VWS V14.01,2013-03-24 23:49:00,
2013-03-24 16:55:00,72.1,51.3,29.88,West,276,3.0,6.0,48,0.00,,---,0.00,VWS V14.01,2013-03-24 23:55:00,
2013-03-24 17:00:00,71.8,52.2,29.88,WNW,295,0.0,6.0,50,0.00,,---,0.00,VWS V14.01,2013-03-25 00:00:00,
2013-03-24 17:05:00,71.7,51.5,29.88,SW,233,3.0,7.0,49,0.00,,---,0.00,VWS V14.01,2013-03-25 00:05:00,
2013-03-24 17:10:00,71.5,53.0,29.88,WSW,247,3.0,7.0,52,0.00,,---,0.00,VWS V14.01,2013-03-25 00:10:00,
2013-03-24 17:15:00,71.3,51.2,29.88,West,280,1.0,7.0,49,0.00,,---,0.00,VWS V14.01,2013-03-25 00:15:00,
2013-03-24 17:20:00,71.0,52.0,29.88,WSW,255,2.0,5.0,51,0.00,,---,0.00,VWS V14.01,2013-03-25 00:20:00,
2013-03-24 17:25:00,70.8,52.3,29.87,WSW,246,2.0,5.0,52,0.00,,---,0.00,VWS V14.01,2013-03-25 00:25:00,
2013-03-24 17:30:00,70.5,52.6,29.87,WSW,257,3.0,6.0,53,0.00,,---,0.00,VWS V14.01,2013-03-25 00:30:00,
2013-03-24 17:35:00,70.1,52.2,29.87,West,265,0.0,4.0,53,0.00,,---,0.00,VWS V14.01,2013-03-25 00:35:00,
2013-03-24 17:40:00,69.9,52.0,29.87,West,264,2.0,5.0,53,0.00,,---,0.00,VWS V14.01,2013-03-25 00:40:00,
2013-03-24 17:45:00,69.7,51.8,29.87,West,265,0.0,6.0,53,0.00,,---,0.00,VWS V14.01,2013-03-25 00:45:00,
2013-03-24 17:50:00,69.5,52.2,29.87,WSW,250,2.0,5.0,54,0.00,,---,0.00,VWS V14.01,2013-03-25 00:50:00,
2013-03-24 17:55:00,69.1,51.3,29.88,West,261,3.0,6.0,53,0.00,,---,0.00,VWS V14.01,2013-03-25 00:55:00,
2013-03-24 18:00:00,68.8,51.5,29.88,WSW,255,2.0,6.0,54,0.00,,---,0.00,VWS V14.01,2013-03-25 01:00:00,
2013-03-24 18:05:00,68.6,51.3,29.88,WSW,257,2.0,5.0,54,0.00,,---,0.00,VWS V14.01,2013-03-25 01:05:00,
2013-03-24 18:10:00,68.4,51.6,29.88,WSW,254,4.0,5.0,55,0.00,,---,0.00,VWS V14.01,2013-03-25 01:10:00,
2013-03-24 18:15:00,68.1,51.3,29.88,West,267,0.0,5.0,55,0.00,,---,0.00,VWS V14.01,2013-03-25 01:15:00,
2013-03-24 18:20:00,67.8,50.6,29.88,NNW,327,0.0,5.0,54,0.00,,---,0.00,VWS V14.01,2013-03-25 01:20:00,
2013-03-24 18:25:00,67.5,51.3,29.88,WNW,296,0.0,5.0,56,0.00,,---,0.00,VWS V14.01,2013-03-25 01:25:00,
2013-03-24 18:30:00,67.1,51.4,29.88,West,260,0.0,5.0,57,0.00,,---,0.00,VWS V14.01,2013-03-25 01:30:00,
2013-03-24 18:35:00,66.8,51.6,29.88,West,260,0.0,2.0,58,0.00,,---,0.00,VWS V14.01,2013-03-25 01:35:00,
2013-03-24 18:40:00,66.4,51.7,29.88,West,262,1.0,3.0,59,0.00,,---,0.00,VWS V14.01,2013-03-25 01:40:00,
2013-03-24 18:45:00,66.0,51.3,29.88,West,260,0.0,3.0,59,0.00,,---,0.00,VWS V14.01,2013-03-25 01:45:00,
2013-03-24 18:50:00,65.6,51.4,29.88,West,261,2.0,2.0,60,0.00,,---,0.00,VWS V14.01,2013-03-25 01:50:00,
2013-03-24 18:55:00,65.2,51.4,29.88,West,261,0.0,4.0,61,0.00,,---,0.00,VWS V14.01,2013-03-25 01:55:00,
2013-03-24 19:00:00,64.8,51.5,29.89,West,271,0.0,4.0,62,0.00,,---,0.00,VWS V14.01,2013-03-25 02:00:00,
2013-03-24 19:05:00,64.4,51.5,29.88,West,274,0.0,3.0,63,0.00,,---,0.00,VWS V14.01,2013-03-25 02:05:00,
2013-03-24 19:10:00,64.0,51.6,29.89,West,277,1.0,3.0,64,0.00,,---,0.00,VWS V14.01,2013-03-25 02:10:00,
2013-03-24 19:15:00,63.7,51.7,29.89,WNW,287,0.0,3.0,65,0.00,,---,0.00,VWS V14.01,2013-03-25 02:15:00,
2013-03-24 19:20:00,63.4,51.4,29.89,WNW,283,2.0,3.0,65,0.00,,---,0.00,VWS V14.01,2013-03-25 02:20:00,
2013-03-24 19:25:00,63.0,51.5,29.90,WNW,284,0.0,3.0,66,0.00,,---,0.00,VWS V14.01,2013-03-25 02:25:00,
2013-03-24 19:30:00,62.6,51.1,29.90,WNW,283,2.0,3.0,66,0.00,,---,0.00,VWS V14.01,2013-03-25 02:30:00,
2013-03-24 19:35:00,62.2,51.1,29.90,WNW,283,0.0,2.0,67,0.00,,---,0.00,VWS V14.01,2013-03-25 02:35:00,
2013-03-24 19:40:00,61.8,50.7,29.90,WNW,283,0.0,2.0,67,0.00,,---,0.00,VWS V14.01,2013-03-25 02:40:00,
2013-03-24 19:45:00,61.5,50.8,29.90,WNW,284,0.0,2.0,68,0.00,,---,0.00,VWS V14.01,2013-03-25 02:45:00,
2013-03-24 19:50:00,61.2,50.6,29.90,WNW,283,0.0,0.0,68,0.00,,---,0.00,VWS V14.01,2013-03-25 02:50:00,
2013-03-24 19:55:00,60.8,50.2,29.90,WNW,283,0.0,0.0,68,0.00,,---,0.00,VWS V14.01,2013-03-25 02:55:00,
2013-03-24 20:00:00,60.5,50.3,29.90,West,281,0.0,0.0,69,0.00,,---,0.00,VWS V14.01,2013-03-25 03:00:00,
2013-03-24 20:05:00,60.3,50.1,29.90,WNW,282,0.0,0.0,69,0.00,,---,0.00,VWS V14.01,2013-03-25 03:05:00,
2013-03-24 20:10:00,60.0,50.2,29.90,WNW,283,0.0,0.0,70,0.00,,---,0.00,VWS V14.01,2013-03-25 03:10:00,
2013-03-24 20:15:00,59.7,49.9,29.90,WNW,283,0.0,0.0,70,0.00,,---,0.00,VWS V14.01,2013-03-25 03:15:00,
2013-03-24 20:20:00,59.5,49.7,29.90,WNW,282,0.0,0.0,70,0.00,,---,0.00,VWS V14.01,2013-03-25 03:20:00,
2013-03-24 20:25:00,59.4,50.0,29.91,SW,229,0.0,3.0,71,0.00,,---,0.00,VWS V14.01,2013-03-25 03:25:00,
2013-03-24 20:30:00,59.2,50.2,29.91,South,183,1.0,3.0,72,0.00,,---,0.00,VWS V14.01,2013-03-25 03:30:00,
2013-03-24 20:35:00,59.1,50.1,29.91,SSE,147,1.0,4.0,72,0.00,,---,0.00,VWS V14.01,2013-03-25 03:35:00,
2013-03-24 20:40:00,59.0,50.0,29.92,SE,146,0.0,4.0,72,0.00,,---,0.00,VWS V14.01,2013-03-25 03:40:00,
2013-03-24 20:45:00,59.0,50.0,29.92,SSE,147,1.0,5.0,72,0.00,,---,0.00,VWS V14.01,2013-03-25 03:45:00,
2013-03-24 20:50:00,59.0,50.0,29.92,SE,145,0.0,4.0,72,0.00,,---,0.00,VWS V14.01,2013-03-25 03:50:00,
2013-03-24 20:55:00,58.6,50.0,29.92,SE,145,1.0,5.0,73,0.00,,---,0.00,VWS V14.01,2013-03-25 03:55:00,
2013-03-24 21:00:00,58.4,49.8,29.91,SE,145,4.0,5.0,73,0.00,,---,0.00,VWS V14.01,2013-03-25 04:00:00,
2013-03-24 21:05:00,58.1,49.9,29.90,SE,144,0.0,4.0,74,0.00,,---,0.00,VWS V14.01,2013-03-25 04:05:00,
2013-03-24 21:10:00,57.8,49.6,29.90,SE,144,0.0,4.0,74,0.00,,---,0.00,VWS V14.01,2013-03-25 04:10:00,
2013-03-24 21:15:00,57.7,49.8,29.90,SE,145,0.0,4.0,75,0.00,,---,0.00,VWS V14.01,2013-03-25 04:15:00,
2013-03-24 21:20:00,57.6,49.8,29.91,SE,144,0.0,0.0,75,0.00,,---,0.00,VWS V14.01,2013-03-25 04:20:00,
2013-03-24 21:25:00,57.3,49.5,29.91,SE,144,0.0,1.0,75,0.00,,---,0.00,VWS V14.01,2013-03-25 04:25:00,
2013-03-24 21:30:00,57.1,49.3,29.91,SE,145,0.0,1.0,75,0.00,,---,0.00,VWS V14.01,2013-03-25 04:30:00,
2013-03-24 21:35:00,57.0,49.5,29.91,SE,144,0.0,0.0,76,0.00,,---,0.00,VWS V14.01,2013-03-25 04:35:00,
2013-03-24 21:40:00,56.8,49.3,29.91,SE,144,0.0,0.0,76,0.00,,---,0.00,VWS V14.01,2013-03-25 04:40:00,
2013-03-24 21:45:00,56.6,49.1,29.91,SE,144,0.0,0.0,76,0.00,,---,0.00,VWS V14.01,2013-03-25 04:45:00,
2013-03-24 21:50:00,56.4,48.9,29.91,SE,144,0.0,0.0,76,0.00,,---,0.00,VWS V14.01,2013-03-25 04:50:00,
2013-03-24 21:55:00,56.3,49.2,29.91,SE,144,0.0,0.0,77,0.00,,---,0.00,VWS V14.01,2013-03-25 04:55:00,
2013-03-24 22:00:00,56.2,49.1,29.92,SE,144,0.0,0.0,77,0.00,,---,0.00,VWS V14.01,2013-03-25 05:00:00,
2013-03-24 22:05:00,56.1,48.7,29.91,SE,144,0.0,0.0,76,0.00,,---,0.00,VWS V14.01,2013-03-25 05:05:00,
2013-03-24 22:10:00,55.9,48.5,29.92,SE,145,3.0,3.0,76,0.00,,---,0.00,VWS V14.01,2013-03-25 05:10:00,
2013-03-24 22:15:00,55.7,47.9,29.92,SE,145,0.0,3.0,75,0.00,,---,0.00,VWS V14.01,2013-03-25 05:15:00,
2013-03-24 22:20:00,55.6,48.2,29.92,SE,144,0.0,0.0,76,0.00,,---,0.00,VWS V14.01,2013-03-25 05:20:00,
2013-03-24 22:25:00,55.5,48.1,29.92,SE,145,0.0,0.0,76,0.00,,---,0.00,VWS V14.01,2013-03-25 05:25:00,
2013-03-24 22:30:00,55.4,48.0,29.92,SE,145,0.0,0.0,76,0.00,,---,0.00,VWS V14.01,2013-03-25 05:30:00,
2013-03-24 22:35:00,55.3,47.5,29.92,SE,144,2.0,3.0,75,0.00,,---,0.00,VWS V14.01,2013-03-25 05:35:00,
2013-03-24 22:40:00,55.1,47.3,29.92,SE,142,0.0,3.0,75,0.00,,---,0.00,VWS V14.01,2013-03-25 05:40:00,
2013-03-24 22:45:00,55.0,47.2,29.92,SE,142,3.0,3.0,75,0.00,,---,0.00,VWS V14.01,2013-03-25 05:45:00,
2013-03-24 22:50:00,54.8,46.7,29.92,SE,135,3.0,4.0,74,0.00,,---,0.00,VWS V14.01,2013-03-25 05:50:00,
2013-03-24 22:55:00,54.6,46.5,29.92,SE,134,2.0,4.0,74,0.00,,---,0.00,VWS V14.01,2013-03-25 05:55:00,
2013-03-24 23:00:00,54.4,45.9,29.92,SE,135,0.0,0.0,73,0.00,,---,0.00,VWS V14.01,2013-03-25 06:00:00,
2013-03-24 23:05:00,54.2,45.8,29.92,SE,134,0.0,3.0,73,0.00,,---,0.00,VWS V14.01,2013-03-25 06:05:00,
2013-03-24 23:10:00,54.1,45.3,29.92,SE,134,0.0,3.0,72,0.00,,---,0.00,VWS V14.01,2013-03-25 06:10:00,
2013-03-24 23:15:00,54.0,45.2,29.92,SE,134,0.0,3.0,72,0.00,,---,0.00,VWS V14.01,2013-03-25 06:15:00,
2013-03-24 23:20:00,54.3,45.5,29.92,SE,134,0.0,0.0,72,0.00,,---,0.00,VWS V14.01,2013-03-25 06:20:00,
2013-03-24 23:25:00,54.4,45.2,29.92,SE,134,0.0,0.0,71,0.00,,---,0.00,VWS V14.01,2013-03-25 06:25:00,
2013-03-24 23:30:00,54.4,45.2,29.92,SE,134,0.0,0.0,71,0.00,,---,0.00,VWS V14.01,2013-03-25 06:30:00,
2013-03-24 23:35:00,54.2,45.0,29.92,SE,135,0.0,3.0,71,0.00,,---,0.00,VWS V14.01,2013-03-25 06:35:00,
2013-03-24 23:40:00,54.1,44.9,29.92,SE,133,0.0,3.0,71,0.00,,---,0.00,VWS V14.01,2013-03-25 06:40:00,
2013-03-24 23:45:00,53.9,45.1,29.91,SE,134,0.0,0.0,72,0.00,,---,0.00,VWS V14.01,2013-03-25 06:45:00,
2013-03-24 23:50:00,53.9,45.5,29.91,SE,135,0.0,0.0,73,0.00,,---,0.00,VWS V14.01,2013-03-25 06:50:00,
2013-03-24 23:55:00,53.9,45.5,29.91,SE,133,0.0,0.0,73,0.00,,---,0.00,VWS V14.01,2013-03-25 06:55:00,